This demonstration page uses our WeatherBlox Daily Observations layout. Learn more.

Left ArrowRight Arrow

41.86663, -103.66717

Hourly Observations for March 10, 2021

Temp ( °F °C ) Dew Point ( °F °C ) Humidity (%) Winds ( mph kmh ) Pressure ( in mb ) Visibility ( mi km ) Precip ( " mm )
12:53 am 00:53 Cloudy with Light Rain 38 3.3 30 -1.1 73 73 NE 16 26 29.73 1007 10 16 0.00 0.00
1:03 am 01:03 Cloudy with Light Rain 37 2.8 30 -1.1 76 76 NE 16 26 29.84 1010 10 16 0.00 0.00
1:53 am 01:53 Cloudy 36 2.2 29 -1.7 76 76 NE 13 20 29.70 1006 10 16 0.00 0.00
2:08 am 02:08 Cloudy 36 2.2 29 -1.7 76 76 NE 15 24 29.81 1009 10 16 0.00 0.00
2:53 am 02:53 Cloudy with Light Snow 34 1.1 28 -2.2 79 79 NNE 12 19 29.68 1005 3 4 0.02 0.51
3:08 am 03:08 Cloudy with Light Snow 34 1.1 28 -2.2 79 79 NNE 12 19 29.82 1010 3 5 0.01 0.25
3:20 am 03:20 Cloudy with Light Snow 34 1.1 29 -1.7 82 82 NE 7 11 29.81 1010 3 4 0.01 0.25
3:24 am 03:24 Cloudy with Light Snow 34 1 28 -2 81 81 NE 9 15 29.81 1010 3 5 0.00 0.00
3:36 am 03:36 Cloudy with Light Snow 33 0.6 29 -1.7 85 85 NNW 5 7 29.83 1010 3 4 0.02 0.51
3:53 am 03:53 Cloudy with Light Snow 33 0.6 29 -1.7 85 85 N 3 6 29.72 1006 2 3 0.02 0.51
4:00 am 04:00 Cloudy with Light Snow 33 0.6 29 -1.7 85 85 N 5 7 29.83 1010 1 2 0.01 0.25
4:30 am 04:30 Mostly Cloudy with Light Snow 32 0 29 -1.7 88 88 NNE 9 15 29.84 1010 1 1 0.04 1.02
4:46 am 04:46 Mostly Cloudy with Light Snow 32 0 29 -1.7 88 88 N 7 11 29.84 1010 1 2 0.06 1.52
4:53 am 04:53 Cloudy with Light Snow 32 0 29 -1.7 88 88 N 8 13 29.72 1007 1 2 0.06 1.52
5:15 am 05:15 Cloudy with Light Snow 32 0 28 -2.2 85 85 NNW 7 11 29.85 1011 3 4 0.01 0.25
5:22 am 05:22 Cloudy with Light Snow 32 0 28 -2.2 85 85 NNW 7 11 29.85 1011 4 6 0.01 0.25
5:47 am 05:47 Cloudy with Light Snow 32 0 27 -3 80 80 NW 7 11 29.86 1011 3 4 0.02 0.51
5:48 am 05:48 Cloudy with Light Snow 32 0 28 -2.2 85 85 NW 7 11 29.75 1007 2 3 0.02 0.51
5:56 am 05:56 Cloudy with Light Snow 30 -1 28 -2 93 93 WNW 7 11 29.88 1012 2 2 0.00 0.00
6:05 am 06:05 Cloudy with Light Snow 31 -0.6 28 -2.2 89 89 WNW 6 9 29.87 1012 2 3 0.01 0.25
6:48 am 06:48 Cloudy with Snow 30 -1 28 -2 93 93 NW 8 13 29.88 1012 1 1 0.03 0.76
6:53 am 06:53 Cloudy with Heavy Snow 31 -0.6 28 -2.2 89 89 NW 7 11 29.76 1008 0 0 0.04 1.02
7:03 am 07:03 Mostly Cloudy with Snow 31 -0.6 28 -2.2 89 89 NNW 9 15 29.86 1011 1 1 0.01 0.25
7:22 am 07:22 Mostly Cloudy with Snow 31 -0.6 28 -2.2 89 89 WNW 8 13 29.87 1012 1 1 0.03 0.76
7:53 am 07:53 Cloudy with Light Snow 31 -0.6 28 -2.2 89 89 NW 9 15 29.77 1008 1 2 0.04 1.02
8:08 am 08:08 Cloudy with Light Snow 31 -0.6 27 -2.8 85 85 NNW 8 13 29.88 1012 3 4 0.00 0.00
8:20 am 08:20 Cloudy with Light Snow 31 -0.6 27 -2.8 85 85 NW 8 13 29.89 1012 3 5 0.00 0.00
8:36 am 08:36 Cloudy with Light Snow 31 -0.6 27 -2.8 85 85 NW 8 13 29.89 1012 6 10 0.00 0.00
8:53 am 08:53 Cloudy 32 0 27 -2.8 82 82 NW 8 13 29.79 1009 8 13 0.00 0.00
9:05 am 09:05 Cloudy with Light Snow 32 0 27 -2.8 82 82 NNW 9 15 29.88 1012 3 4 0.00 0.00
9:13 am 09:13 Cloudy with Light Snow 32 0 27 -2.8 82 82 NNW 10 17 29.88 1012 1 1 0.01 0.25
9:22 am 09:22 Cloudy with Light Snow 32 0 28 -2.2 85 85 NNW 8 13 29.88 1012 1 2 0.01 0.25
9:32 am 09:32 Cloudy with Light Snow 32 0 28 -2 87 87 NW 9 15 29.88 1012 1 2 0.00 0.00
9:44 am 09:44 Cloudy with Light Snow 32 0 28 -2.2 85 85 WNW 8 13 29.88 1012 2 2 0.02 0.51
9:51 am 09:51 Cloudy with Light Snow 32 0 28 -2 87 87 NW 7 11 29.88 1012 3 5 0.02 0.51
9:53 am 09:53 Cloudy with Light Snow 32 0 28 -2.2 85 85 NW 9 15 29.80 1009 4 6 0.02 0.51
10:12 am 10:12 Cloudy 33 0.6 28 -2.2 82 82 NNW 8 13 29.87 1012 10 16 0.00 0.00
10:19 am 10:19 Cloudy 34 1.1 27 -2.8 76 76 N 7 11 29.86 1011 10 16 0.00 0.00
10:33 am 10:33 Cloudy 33 0.6 27 -2.8 78 78 NNW 9 15 29.88 1012 10 16 0.00 0.00
10:53 am 10:53 Cloudy with Light Snow 33 0.6 26 -3.3 75 75 N 13 20 29.80 1009 6 10 0.00 0.00
11:03 am 11:03 Cloudy 33 0.6 26 -3.3 75 75 N 10 17 29.89 1012 10 16 0.00 0.00
11:53 am 11:53 Cloudy 34 1.1 26 -3.3 73 73 N 9 15 29.83 1010 10 16 0.00 0.00
12:02 pm 12:02 Cloudy 34 1 25 -4 70 70 N 10 17 29.89 1012 10 16 0.00 0.00
12:30 pm 12:30 Cloudy 34 1.1 25 -3.9 70 70 NNE 7 11 29.89 1012 10 16 0.00 0.00
12:53 pm 12:53 Cloudy 34 1.1 25 -3.9 70 70 NNW 8 13 29.84 1011 10 16 0.00 0.00
1:53 pm 13:53 Cloudy 34 1.1 26 -3.3 73 73 undefined N/A 29.86 1011 10 16 0.00 0.00
2:53 pm 14:53 Cloudy 34 1.1 25 -3.9 70 70 NNW 7 11 29.89 1012 10 16 0.00 0.00
3:02 pm 15:02 Cloudy 33 0.6 25 -3.9 72 72 N 7 11 29.94 1014 10 16 0.00 0.00
3:36 pm 15:36 Cloudy 34 1.1 25 -3.9 70 70 NNW 6 9 29.95 1014 10 16 0.00 0.00
3:53 pm 15:53 Cloudy 33 0.6 24 -4.4 70 70 NW 6 9 29.92 1013 10 16 0.00 0.00
4:00 pm 16:00 Cloudy 34 1.1 25 -3.9 70 70 NNW 6 9 29.95 1014 10 16 0.00 0.00
4:10 pm 16:10 Cloudy 34 1.1 24 -4.4 67 67 WNW 6 9 29.96 1015 10 16 0.00 0.00
4:53 pm 16:53 Cloudy 34 1.1 25 -3.9 70 70 WNW 5 7 29.95 1014 10 16 0.00 0.00
5:32 pm 17:32 Cloudy 33 0.6 24 -4.4 70 70 NW 5 7 30.01 1016 10 16 0.00 0.00
5:50 pm 17:50 Cloudy 34 1 27 -3 75 75 W 6 9 30.01 1016 10 16 0.00 0.00
5:53 pm 17:53 Cloudy 33 0.6 25 -3.9 72 72 W 6 9 29.99 1016 10 16 0.00 0.00
6:44 pm 18:44 Cloudy 32 0 26 -3.3 79 79 WSW 9 15 30.06 1018 10 16 0.00 0.00
6:53 pm 18:53 Cloudy 32 0 26 -3.3 79 79 WSW 9 15 30.02 1017 10 16 0.00 0.00
7:23 pm 19:23 Cloudy 32 0 26 -3.3 79 79 W 7 11 30.08 1019 10 16 0.00 0.00
7:37 pm 19:37 Partly Cloudy 31 -0.6 25 -3.9 79 79 W 7 11 30.09 1019 10 16 0.00 0.00
7:53 pm 19:53 Clear 30 -1.1 24 -4.4 79 79 NW 8 13 30.04 1017 10 16 0.00 0.00
8:53 pm 20:53 Clear 27 -2.8 23 -5 85 85 WNW 6 9 30.06 1018 10 16 0.00 0.00
9:53 pm 21:53 Clear 26 -3.3 22 -5.6 84 84 WNW 6 9 30.09 1019 10 16 0.00 0.00
10:53 pm 22:53 Clear 24 -4.4 20 -6.7 84 84 NW 6 9 30.09 1019 10 16 0.00 0.00
11:53 pm 23:53 Clear 22 -5.6 19 -7.2 89 89 NW 6 9 30.11 1020 10 16 0.00 0.00

Powered by AerisWeather